| time (UTC) | temp C | wind direction | speed KPH | gust KPH | rain 1hr cm | rain 24hr cm | rain mn cm | humidity % | barometer mb |
| 20260504100135 | 21 | 12 | 3.2 | 6.4 | 0.00 | 0.00 | 0.00 | 76 | 1012.8 |
| 20260504081017 | 17 | 90 | 1.6 | 3.2 | 0.00 | 0.00 | 0.00 | 93 | 1013.0 |
| 20260504080112 | 17 | 90 | 1.6 | 3.2 | 0.00 | 0.00 | 0.00 | 93 | 1013.2 |
| 20260504060130 | 17 | 31 | 3.2 | 6.4 | 0.00 | 0.00 | 0.00 | 94 | 1012.6 |
| 20260504045033 | 17 | 32 | 4.8 | 9.7 | 0.00 | 0.00 | 0.00 | 94 | 1012.3 |
| 20260504044047 | 17 | 19 | 4.8 | 11.3 | 0.00 | 0.00 | 0.00 | 94 | 1012.2 |
| 20260504043022 | 17 | 23 | 4.8 | 9.7 | 0.00 | 0.00 | 0.00 | 94 | 1012.2 |
| 20260504042017 | 17 | 26 | 4.8 | 9.7 | 0.00 | 0.00 | 0.00 | 94 | 1012.3 |
| 20260504041113 | 17 | 27 | 4.8 | 9.7 | 0.00 | 0.00 | 0.00 | 94 | 1012.3 |
| 20260504040128 | 17 | 16 | 4.8 | 9.7 | 0.00 | 0.00 | 0.00 | 95 | 1012.3 |
| 20260504035101 | 17 | 23 | 4.8 | 11.3 | 0.00 | 0.00 | 0.00 | 95 | 1012.3 |
| 20260504034056 | 17 | 20 | 4.8 | 9.7 | 0.00 | 0.00 | 0.00 | 95 | 1012.5 |
| 20260504033051 | 17 | 16 | 6.4 | 12.9 | 0.00 | 0.00 | 0.00 | 95 | 1012.5 |
| 20260504032046 | 17 | 18 | 4.8 | 6.4 | 0.00 | 0.00 | 0.00 | 94 | 1012.7 |
| 20260504031041 | 17 | 27 | 3.2 | 6.4 | 0.00 | 0.00 | 0.00 | 94 | 1012.7 |
| 20260504030035 | 17 | 26 | 4.8 | 6.4 | 0.00 | 0.00 | 0.00 | 94 | 1012.9 |
| 20260504025031 | 17 | 31 | 3.2 | 6.4 | 0.00 | 0.00 | 0.00 | 94 | 1012.8 |
| 20260504024025 | 17 | 26 | 4.8 | 6.4 | 0.00 | 0.00 | 0.00 | 94 | 1013.0 |
| 20260504023020 | 17 | 35 | 4.8 | 9.7 | 0.00 | 0.00 | 0.00 | 94 | 1012.9 |
| 20260504022116 | 17 | 23 | 3.2 | 9.7 | 0.00 | 0.00 | 0.00 | 95 | 1012.9 |
| 20260504021110 | 17 | 45 | 3.2 | 9.7 | 0.00 | 0.00 | 0.00 | 95 | 1012.9 |
| 20260504020105 | 17 | 31 | 4.8 | 11.3 | 0.00 | 0.00 | 0.00 | 95 | 1013.0 |
| 20260504015059 | 17 | 31 | 4.8 | 11.3 | 0.00 | 0.00 | 0.00 | 94 | 1013.0 |
| 20260504014054 | 17 | 41 | 4.8 | 6.4 | 0.00 | 0.00 | 0.00 | 94 | 1013.0 |
| 20260504013049 | 17 | 38 | 3.2 | 6.4 | 0.00 | 0.00 | 0.00 | 93 | 1013.1 |
| 20260504012044 | 17 | 55 | 4.8 | 9.7 | 0.00 | 0.00 | 0.00 | 93 | 1013.2 |
| 20260504011039 | 17 | 84 | 4.8 | 9.7 | 0.00 | 0.00 | 0.00 | 92 | 1013.3 |
| 20260504010034 | 17 | 40 | 4.8 | 9.7 | 0.00 | 0.00 | 0.00 | 92 | 1013.4 |
| 20260504005029 | 17 | 46 | 4.8 | 9.7 | 0.00 | 0.00 | 0.00 | 92 | 1013.4 |
| 20260504004023 | 18 | 47 | 4.8 | 11.3 | 0.00 | 0.00 | 0.00 | 92 | 1013.4 |
| 20260504003018 | 18 | 45 | 6.4 | 11.3 | 0.00 | 0.00 | 0.00 | 92 | 1013.3 |
| 20260504002113 | 18 | 42 | 4.8 | 9.7 | 0.00 | 0.00 | 0.00 | 92 | 1013.4 |
| 20260504001108 | 18 | 38 | 4.8 | 9.7 | 0.00 | 0.00 | 0.00 | 91 | 1013.5 |
| 20260504000123 | 18 | 42 | 4.8 | 9.7 | 0.00 | 0.00 | 0.00 | 91 | 1013.5 |
| 20260503235057 | 18 | 45 | 6.4 | 11.3 | 0.00 | 0.00 | 0.00 | 91 | 1013.5 |
| 20260503234112 | 18 | 48 | 6.4 | 9.7 | 0.00 | 0.00 | 0.00 | 90 | 1013.7 |
| 20260503233106 | 18 | 74 | 4.8 | 11.3 | 0.00 | 0.00 | 0.00 | 90 | 1013.6 |
| 20260503232041 | 18 | 62 | 8.0 | 12.9 | 0.00 | 0.00 | 0.00 | 90 | 1013.7 |
| 20260503231036 | 18 | 35 | 4.8 | 9.7 | 0.00 | 0.00 | 0.00 | 89 | 1013.8 |
| 20260503230051 | 18 | 40 | 4.8 | 9.7 | 0.00 | 0.00 | 0.00 | 89 | 1013.8 |
| 20260503225026 | 18 | 60 | 4.8 | 6.4 | 0.00 | 0.00 | 0.00 | 88 | 1013.9 |
| 20260503224021 | 18 | 54 | 3.2 | 6.4 | 0.00 | 0.00 | 0.00 | 87 | 1013.9 |
| 20260503223016 | 18 | 50 | 4.8 | 11.3 | 0.00 | 0.00 | 0.00 | 87 | 1013.9 |
| 20260503222112 | 18 | 70 | 6.4 | 12.9 | 0.00 | 0.00 | 0.00 | 86 | 1014.0 |
| 20260503221107 | 18 | 66 | 4.8 | 11.3 | 0.00 | 0.00 | 0.00 | 86 | 1014.1 |
| 20260503220059 | 18 | 41 | 4.8 | 9.7 | 0.00 | 0.00 | 0.00 | 85 | 1014.2 |
| 20260503215053 | 18 | 58 | 6.4 | 12.9 | 0.00 | 0.00 | 0.00 | 85 | 1014.3 |
| 20260503214048 | 18 | 41 | 6.4 | 12.9 | 0.00 | 0.00 | 0.00 | 85 | 1014.4 |
| 20260503213043 | 18 | 53 | 6.4 | 11.3 | 0.00 | 0.00 | 0.00 | 85 | 1014.3 |
| 20260503212058 | 18 | 55 | 8.0 | 14.5 | 0.00 | 0.00 | 0.00 | 85 | 1014.2 |
| 20260503211032 | 18 | 58 | 8.0 | 14.5 | 0.00 | 0.00 | 0.00 | 85 | 1014.3 |
| 20260503210026 | 18 | 42 | 6.4 | 11.3 | 0.00 | 0.00 | 0.00 | 84 | 1014.1 |
| 20260503205022 | 18 | 49 | 6.4 | 11.3 | 0.00 | 0.00 | 0.00 | 84 | 1014.1 |
| 20260503204016 | 18 | 69 | 6.4 | 12.9 | 0.00 | 0.00 | 0.00 | 84 | 1014.1 |
| 20260503203111 | 18 | 57 | 8.0 | 14.5 | 0.00 | 0.00 | 0.00 | 84 | 1013.9 |
| 20260503202106 | 18 | 50 | 9.7 | 14.5 | 0.00 | 0.00 | 0.00 | 84 | 1013.9 |
| 20260503201120 | 18 | 68 | 9.7 | 17.7 | 0.00 | 0.00 | 0.00 | 83 | 1013.7 |
| 20260503200054 | 18 | 65 | 9.7 | 17.7 | 0.00 | 0.00 | 0.00 | 83 | 1013.5 |
| 20260503195050 | 18 | 53 | 8.0 | 17.7 | 0.00 | 0.00 | 0.00 | 82 | 1013.3 |
| 20260503194044 | 18 | 67 | 11.3 | 20.9 | 0.00 | 0.00 | 0.00 | 82 | 1013.0 |
| 20260503193059 | 18 | 71 | 9.7 | 17.7 | 0.00 | 0.00 | 0.00 | 82 | 1012.9 |
| 20260503192054 | 19 | 80 | 11.3 | 22.5 | 0.00 | 0.00 | 0.00 | 81 | 1012.8 |
| 20260503191029 | 19 | 54 | 9.7 | 17.7 | 0.00 | 0.00 | 0.00 | 80 | 1012.5 |
| 20260503190024 | 19 | 64 | 12.9 | 22.5 | 0.00 | 0.00 | 0.00 | 80 | 1012.4 |
| 20260503185019 | 19 | 65 | 16.1 | 32.2 | 0.00 | 0.00 | 0.00 | 80 | 1012.3 |
| 20260503184114 | 19 | 52 | 12.9 | 29.0 | 0.00 | 0.00 | 0.00 | 78 | 1012.0 |
| 20260503183109 | 19 | 45 | 14.5 | 27.4 | 0.00 | 0.00 | 0.00 | 77 | 1011.9 |
| 20260503182124 | 20 | 59 | 12.9 | 20.9 | 0.00 | 0.00 | 0.00 | 76 | 1011.7 |
| 20260503181057 | 20 | 78 | 11.3 | 20.9 | 0.00 | 0.00 | 0.00 | 76 | 1011.7 |
| 20260503180052 | 21 | 37 | 11.3 | 20.9 | 0.00 | 0.00 | 0.00 | 74 | 1011.7 |
| 20260503175047 | 21 | 63 | 12.9 | 24.1 | 0.00 | 0.00 | 0.00 | 75 | 1011.6 |
| 20260503174042 | 21 | 71 | 11.3 | 25.7 | 0.00 | 0.00 | 0.00 | 74 | 1011.4 |
| 20260503173032 | 21 | 53 | 16.1 | 27.4 | 0.00 | 0.00 | 0.00 | 73 | 1011.1 |
| 20260503172027 | 22 | 46 | 12.9 | 24.1 | 0.00 | 0.00 | 0.00 | 71 | 1011.0 |
| 20260503171017 | 22 | 71 | 12.9 | 25.7 | 0.00 | 0.00 | 0.00 | 69 | 1010.9 |
| 20260503170107 | 23 | 63 | 11.3 | 22.5 | 0.00 | 0.00 | 0.00 | 68 | 1010.9 |
| 20260503131051 | 25 | 143 | 6.4 | 12.9 | 0.00 | 0.00 | 0.00 | 56 | 1013.0 |
| 20260503130201 | 25 | 221 | 6.4 | 12.9 | 0.00 | 0.00 | 0.00 | 56 | 1013.1 |